Regional Weather Roundup
Issued by NWS

Home | Current Version | Previous Version | Graphics & Text | Print | Product List | Glossary On
Versions: 1 2 3 4 5 6 7 8 9 10 11 12 13 14 15 16 17 18 19 20 21 22 23 24 25 26 27 28 29 30 31 32 33 34 35 36 37 38 39 40 41 42 43 44 45 46 47 48 49 50
000
ASUS45 KBOI 300510
RWRID
WEATHER ROUNDUP FOR IDAHO
NATIONAL WEATHER SERVICE BOISE ID
1100 PM MDT FRI AUG 29 2014

NOTE: "FAIR" INDICATES FEW OR NO CLOUDS BELOW 12000 FEET
WITH NO SIGNIFICANT WEATHER AND/OR OBSTRUCTIONS TO VISIBILITY

IDZ012-014-300600-
SOUTHWEST IDAHO


CITY           SKY/WX    TMP DP  RH WIND       PRES   REMARKS
BOISE          CLOUDY    80  42  25 S5        29.79S
CALDWELL       CLOUDY    75  48  38 SW3       29.79S
MOUNTAIN HOME  MOCLDY    74  47  38 S6        29.81S
$$

IDZ016-017-300600-
SOUTHCENTRAL IDAHO


CITY           SKY/WX    TMP DP  RH WIND       PRES   REMARKS
BURLEY         MOCLDY    63  51  65 S6        29.90F
JEROME         MOCLDY    67  48  50 NE10      29.90S
TWIN FALLS     PTCLDY    65  48  54 S3        29.91S
$$

IDZ019>023-300600-
SOUTHEAST IDAHO


CITY           SKY/WX    TMP DP  RH WIND       PRES   REMARKS
IDAHO FALLS    PTCLDY    69  46  43 S8        29.97S
POCATELLO      PTCLDY    72  41  32 SW5       29.95F
REXBURG        PTCLDY    68  43  40 S10       29.97F
$$

IDZ006-010-011-018-031-032-300600-
CENTRAL IDAHO MOUNTAINS


CITY           SKY/WX    TMP DP  RH WIND       PRES   REMARKS
MCCALL         MOCLDY    61  43  51 NW3       29.92S
HAILEY         RAIN      64  54  68 N12       30.05R
STANLEY          N/A     62  40  44 SE7       30.06S
SALMON         MOCLDY    63  52  67 CALM      29.84S
CHALLIS        MOCLDY    73  35  25 S7        29.93S
$$

IDZ002-004-006-007-026-300600-
NORTHERN IDAHO


CITY           SKY/WX    TMP DP  RH WIND       PRES   REMARKS
LEWISTON       CLOUDY    77  45  32 W14G25    29.82R
LOWELL           N/A     65  52  62 NW3       29.83R
COEUR D`ALENE  CLOUDY    68  43  40 SW7       29.82S
MULLAN PASS    CLOUDY    55  33  43 W8        29.98F
$$



USA.gov is the U.S. government's official web portal to all federal, state and local government web resources and services.